Location: Igon
(43.1667°N, 0.2333°W)
Time: 02:34:57
(UTC+00:00)

SKYMED 3 - Pass Details

Date: 18 April 2021
Orbit: 621 x 624 km, 97.9° (Epoch: 18 May)

Event Time Altitude Azimuth Distance (km) Brightness Sun altitude
Rises 19:08:54 0° 359° (N) 2,913 8.3 -4.6°
Reaches altitude 10° 19:11:28 10° 345° (NNW) 2,001 7.7 -5.0°
Maximum altitude 19:14:50 22° 294° (WNW) 1,352 7.6 -5.6°
Drops below altitude 10° 19:18:12 10° 243° (WSW) 1,989 7.8 -6.1°
Sets 19:20:44 0° 228° (SW) 2,890 8.4 -6.6°
